Location: ?????????
(54.7630°N, 39.4991°E)
Time: 21:57:23
(UTC+00:00)

Cosmos 2221 Rocket - Pass Details

Date: 14 April 2026
Orbit: 615 x 642 km, 82.5° (Epoch: 13 May)

Event Time Altitude Azimuth Distance (km) Brightness Sun altitude
Rises 19:08:23 0° 345° (NNW) 2,901 8.3 -19.8°
Reaches altitude 10° 19:10:38 10° 342° (NNW) 1,991 7.2 -19.9°
Maximum altitude 19:14:58 59° 264° (W) 718 3.9 -20.3°
Enters shadow 19:16:31 36° 202° (SSW) 978 4.3 -20.4°
